This is the latest recevied weather packets stored in our database for station/object N4ASP-13. If no packets are shown the sender has not sent any weather packets the latest 1 day(s).
| Time | Temp. | Humidity | Pressure | Rain* | Wind** | Luminosity | Snow |
|---|---|---|---|---|---|---|---|
| 1778094413 | 18.89° C | 86% | 1012.8 hPa | 0 mm | - | 383 W/m² | - |
| 1778094349 | 18.89° C | 86% | 1012.9 hPa | 0 mm | - | 608 W/m² | - |
| 1778094044 | 18.89° C | 87% | 1012.9 hPa | 0 mm | - | 547 W/m² | - |
| 1778093861 | 18.89° C | 87% | 1012.8 hPa | 0 mm | - | 585 W/m² | - |
| 1778093611 | 18.89° C | 87% | 1012.7 hPa | 0 mm | - | 694 W/m² | - |
| 1778092809 | 18.33° C | 88% | 1012.4 hPa | 0 mm | - | 765 W/m² | - |
| 1778092077 | 18.33° C | 88% | 1012.6 hPa | 0 mm | - | 454 W/m² | - |
| 1778091957 | 18.33° C | 87% | 1012.7 hPa | 0 mm | - | 441 W/m² | - |
| 1778091767 | 18.33° C | 88% | 1012.5 hPa | 0 mm | - | 475 W/m² | - |
| 1778091521 | 18.33° C | 87% | 1012.7 hPa | 0 mm | - | 513 W/m² | - |
| 1778091401 | 18.33° C | 87% | 1012.7 hPa | 0 mm | - | 515 W/m² | - |
| 1778091274 | 18.33° C | 87% | 1012.8 hPa | 0 mm | - | 517 W/m² | - |
| 1778090850 | 18.33° C | 87% | 1012.9 hPa | 0.25 mm | - | 578 W/m² | - |
| 1778090725 | 18.33° C | 87% | 1012.9 hPa | 0.25 mm | - | 621 W/m² | - |
| 1778090598 | 18.33° C | 87% | 1013 hPa | 0.25 mm | - | 587 W/m² | - |
| 1778090539 | 18.33° C | 86% | 1012.9 hPa | 0.25 mm | - | 599 W/m² | - |
| 1778090478 | 18.33° C | 86% | 1012.8 hPa | 0.25 mm | - | 629 W/m² | - |
| 1778090354 | 18.33° C | 87% | 1012.7 hPa | 0.25 mm | - | 705 W/m² | - |
| 1778090234 | 18.33° C | 87% | 1012.8 hPa | 0.51 mm | - | 677 W/m² | - |
| 1778090044 | 18.33° C | 87% | 1013 hPa | 0.51 mm | - | 543 W/m² | - |
| 1778089925 | 18.33° C | 88% | 1013.1 hPa | 0.51 mm | - | 529 W/m² | - |
| 1778089565 | 18.33° C | 90% | 1012.9 hPa | 0.51 mm | - | 870 W/m² | - |
| 1778089445 | 17.78° C | 89% | 1012.9 hPa | 0.51 mm | - | 824 W/m² | - |
| 1778089204 | 17.22° C | 91% | 1012.8 hPa | 0.51 mm | - | 868 W/m² | - |
| 1778089085 | 17.22° C | 91% | 1012.6 hPa | 0.51 mm | - | 712 W/m² | - |
* Rain latest hour (hover to see other rain measurements)
** Current wind speed in m/s (hover to see current wind gust speed)